{"data":{"norad_id":49092,"intl_designator":"2021-075T","name":"ONEWEB-0304","alt_names":[],"object_type":"PAYLOAD","status":"ACTIVE","operator":null,"country":"UK","launch_date":"2021-08-21","launch_site_code":"TYMSC","launch_vehicle":null,"mission":null,"orbit_class":"UNKNOWN","rcs_meters":null,"size_class":null,"mass_kg":null,"dimensions":null,"purposes":["comms"],"wikipedia_slug":null,"has_3d_model":false,"image_url":null,"decayed_at":null,"tle_current":{"epoch":"2026-09-19T13:22:05.721888Z","epoch_age_seconds":103361,"freshness":"FRESH","line1":"1 49092U 21075T   26262.55701067  .00000022  00000+0  23179-4 0  9997","line2":"2 49092  87.9199 347.1303 0001865 105.2891 254.8447 13.17650656246002","mean_motion":13.17650656,"eccentricity":0.0001865,"inclination_deg":87.9199,"raan_deg":347.1303,"arg_perigee_deg":105.2891,"mean_anomaly_deg":254.8447,"bstar":2.3179e-5,"rev_number":24600,"period_min":109.28541593653,"perigee_km":1192.2947668606,"apogee_km":1195.1190646412,"semimajor_km":7571.8439157509,"source":"CELESTRAK","updated_at":"2026-09-20T09:00:44.656083Z"}}}